Location: Lourdes
(43.1000°N, 0.0500°W)
Time: 04:55:21
(UTC+00:00)

COSMO-SKYMED 1 - Pass Details

Date: 30 November 2020
Orbit: 621 x 623 km, 97.9° (Epoch: 24 January)

Event Time Altitude Azimuth Distance (km) Brightness Sun altitude
Exits shadow 18:42:30 15° 355° (N) 1,722 4.8 -24.2°
Maximum altitude 18:45:52 42° 289° (WNW) 889 3.7 -24.8°
Drops below altitude 10° 18:49:57 10° 218° (SW) 1,989 5.7 -25.6°
Sets 18:52:13 0° 212° (SSW) 2,890 6.5 -26.0°
